Location: Kunchanapalle
(16.4623°N, 80.6176°E)
Time: 18:15:48
(UTC+00:00)

Ariane H10 - Pass Details

Date: 13 August 2020
Orbit: 411 x 34713 km, 3.9° (Epoch: 17 September)

Event Time Altitude Azimuth Distance (km) Brightness Sun altitude
Exits shadow 22:57:18 20° 192° (SSW) 1,677 4.4 -19.9°
Maximum altitude 22:59:04 25° 158° (SSE) 1,881 5.0 -19.5°
Drops below altitude 10° 23:08:27 10° 107° (ESE) 5,679 8.2 -17.4°
Sets 23:21:06 0° 98° (E) 10,612 10.0 -14.6°
